Showing default

KUIPER-00016, 63732

Orbit data source: Space-Track

KUIPER-00016, 63732 is a payload satellite owned by Kuiper Systems (US) in LEO that was launched on Mon, 28 Apr 2025 UTC via an ATLAS V 551 launch vehicle from the Air Force Eastern Test Range (AFETR). Payload-class satellites include a variety of spacecraft equipped with specific instruments for various scientific and technological missions. These include communications satellites like Starlink; space stations such as the ISS; scientific satellites like the Hubble; Earth observation satellites from companies like Planet Labs, Umbra, and HawkEye 360; GPS; miniature CubeSats for education and research; and military/defense satellites.

Loading next visibility...
Identifier
63732, 2025-088J
Orbit
LEO
Country
Flag of USUS
Related business
Manufacturer
Kuiper Systems
Mission
Operational Commercial Communications
Bus & Motor
KUIPER, Unknown motor
Mass
~490 kg wet, ~490 kg dry
Launch date (UTC)
2025-04-28 (8 months ago)
Launch vehicle
ATLAS V 551
Launch site
Air Force Eastern Test Range (AFETR)
Object type
Payload
Rocket body
Debris
Shape & HBR
Box + 2 Pan, 3.4 m
Radar Cross Section
2.326 m², Large (>1 m²)

Expand to show TLE details & history
Last TLE update: 1 day ago

TLE from 1 day ago
0 KUIPER-00016
1 63732U 25088J   25348.41988293 -.00000844  00000-0 -81176-4 0  9995
2 63732  51.9023 128.6582 0013713 141.4526 218.7418 14.79909847 34706
Epoch: 2025-12-14T10:04Z
TLE epoch observation values (Epoch: 2025-12-14T10:04:37.885Z)
Latitude
-0.00001°
Longitude
-105.83273°
Altitude
637.856 km
Speed
7.536 km/s
True Right ascension
08h 34m 37s
True Declination
0° 00' 00"
Sunlit
Object was in full shadow at epoch
Visualization orbit readout
Latitude
Unknown
Longitude
Unknown
Altitude
Unknown
Speed
Unknown
Apparent Right ascension
Unknown
Apparent Declination
Unknown
Sunlit
N/A
Visualization observer readout
Local Sidereal Time
13:22:47
Azimuth
Unknown
Elevation
Unknown
Doppler factor
Unknown
Orbital elements
Apogee altitude
639.67 km
Perigee altitude
620.449 km
Semi-major axis
7,008.197 km
Eccentricity
0.00137
Inclination
51.9023°
RAAN
128.6582°
Arg. of periapsis
141.4526°
True anomaly
218.64359°
Mean anomaly
218.7418°
Eccentric anomaly
218.69268°
Mean motion
3.69942 °/min
Orbital period
97.31 mins
BSTAR
-0.000081176
Loading maneuver chart data...
Computing Atmospheric mass density...
Loading historical data...
Loading historical data...
Loading historical data...
Loading historical data...
Loading historical data...
Loading historical data...
Loading historical data...

Documentation

Showing up to 5 results
|